{"data":{"norad_id":60905,"epoch":"2026-09-21T08:49:18.751296Z","epoch_age_seconds":113505,"freshness":"FRESH","line1":"1 60905U 24154C   26264.36757814 -.00000018  00000+0  47140-5 0  9997","line2":"2 60905  53.1590 246.9509 0001153  99.8536 260.2612 15.69705391119242","mean_motion":15.69705391,"eccentricity":0.0001153,"inclination_deg":53.159,"raan_deg":246.9509,"arg_perigee_deg":99.8536,"mean_anomaly_deg":260.2612,"bstar":4.714e-6,"rev_number":11924,"period_min":91.736959575748,"perigee_km":358.96306243468,"apogee_km":360.51681685696,"semimajor_km":6737.8769396458,"source":"CELESTRAK","updated_at":"2026-09-22T09:00:49.282606Z"}}